| time (UTC) | temp C | wind direction | speed KPH | gust KPH | rain 1hr cm | rain 24hr cm | rain mn cm | humidity % | barometer mb |
| 20260504223022 | 16 | 125 | 4.8 | 12.9 | 0.00 | 0.38 | 0.28 | 74 | 1018.7 |
| 20260504222520 | 16 | 219 | 0.0 | 4.8 | 0.00 | 0.38 | 0.28 | 78 | 1018.7 |
| 20260504222019 | 15 | 151 | 0.0 | 8.0 | 0.00 | 0.38 | 0.28 | 78 | 1018.6 |
| 20260504221519 | 15 | 134 | 1.6 | 11.3 | 0.00 | 0.38 | 0.28 | 80 | 1018.5 |
| 20260504221017 | 15 | 140 | 1.6 | 11.3 | 0.00 | 0.38 | 0.28 | 81 | 1018.3 |
| 20260504220515 | 15 | 149 | 1.6 | 6.4 | 0.00 | 0.38 | 0.28 | 82 | 1018.3 |
| 20260504220015 | 15 | 111 | 0.0 | 6.4 | 0.00 | 0.38 | 0.28 | 82 | 1018.1 |
| 20260504215514 | 15 | 133 | 1.6 | 6.4 | 0.00 | 0.38 | 0.28 | 82 | 1018.2 |
| 20260504215015 | 15 | 116 | 1.6 | 4.8 | 0.00 | 0.38 | 0.28 | 82 | 1018.1 |
| 20260504214513 | 15 | 170 | 0.0 | 4.8 | 0.00 | 0.38 | 0.28 | 83 | 1017.9 |
| 20260504214012 | 15 | 180 | 0.0 | 4.8 | 0.00 | 0.38 | 0.28 | 82 | 1017.8 |
| 20260504213514 | 15 | 150 | 0.0 | 3.2 | 0.00 | 0.38 | 0.28 | 83 | 1017.8 |
| 20260504213026 | 15 | 148 | 0.0 | 3.2 | 0.00 | 0.38 | 0.28 | 82 | 1017.7 |
| 20260504212509 | 15 | 148 | 0.0 | 6.4 | 0.00 | 0.38 | 0.28 | 82 | 1017.4 |
| 20260504212008 | 15 | 131 | 1.6 | 6.4 | 0.00 | 0.38 | 0.28 | 83 | 1017.4 |
| 20260504211507 | 15 | 138 | 1.6 | 4.8 | 0.00 | 0.38 | 0.28 | 84 | 1017.4 |
| 20260504211005 | 15 | 132 | 0.0 | 3.2 | 0.00 | 0.38 | 0.28 | 84 | 1017.3 |
| 20260504210505 | 15 | 131 | 0.0 | 1.6 | 0.00 | 0.38 | 0.28 | 84 | 1017.2 |
| 20260504210002 | 15 | 131 | 0.0 | 6.4 | 0.00 | 0.38 | 0.28 | 85 | 1017.0 |
| 20260504205501 | 15 | 131 | 1.6 | 6.4 | 0.03 | 0.38 | 0.28 | 86 | 1016.9 |
| 20260504205103 | 15 | 222 | 0.0 | 4.8 | 0.03 | 0.38 | 0.28 | 88 | 1016.8 |
| 20260504204559 | 15 | 135 | 0.0 | 3.2 | 0.03 | 0.38 | 0.28 | 90 | 1016.8 |
| 20260504204058 | 15 | 146 | 0.0 | 3.2 | 0.03 | 0.38 | 0.28 | 91 | 1016.7 |
| 20260504203558 | 15 | 146 | 0.0 | 3.2 | 0.03 | 0.38 | 0.28 | 91 | 1016.7 |
| 20260504203055 | 15 | 252 | 0.0 | 0.0 | 0.03 | 0.38 | 0.28 | 92 | 1016.5 |
| 20260504202554 | 15 | 257 | 0.0 | 1.6 | 0.03 | 0.38 | 0.28 | 92 | 1016.5 |
| 20260504202055 | 15 | 260 | 0.0 | 3.2 | 0.03 | 0.38 | 0.28 | 93 | 1016.3 |
| 20260504201554 | 15 | 260 | 0.0 | 3.2 | 0.03 | 0.38 | 0.28 | 93 | 1016.3 |
| 20260504201052 | 15 | 260 | 0.0 | 3.2 | 0.03 | 0.38 | 0.28 | 93 | 1016.1 |
| 20260504200552 | 15 | 260 | 0.0 | 6.4 | 0.03 | 0.38 | 0.28 | 94 | 1016.2 |
| 20260504200051 | 15 | 198 | 0.0 | 6.4 | 0.03 | 0.38 | 0.28 | 94 | 1016.1 |
| 20260504195549 | 15 | 244 | 0.0 | 6.4 | 0.00 | 0.36 | 0.25 | 94 | 1016.0 |
| 20260504195048 | 15 | 251 | 0.0 | 6.4 | 0.00 | 0.36 | 0.25 | 95 | 1016.2 |
| 20260504194553 | 15 | 251 | 0.0 | 4.8 | 0.00 | 0.36 | 0.25 | 95 | 1016.0 |
| 20260504194046 | 16 | 251 | 0.0 | 6.4 | 0.00 | 0.36 | 0.25 | 95 | 1016.0 |
| 20260504193545 | 16 | 248 | 3.2 | 6.4 | 0.00 | 0.36 | 0.25 | 96 | 1016.0 |
| 20260504193047 | 16 | 284 | 1.6 | 4.8 | 0.00 | 0.36 | 0.25 | 96 | 1015.8 |
| 20260504192542 | 16 | 281 | 3.2 | 6.4 | 0.00 | 0.36 | 0.25 | 96 | 1015.7 |
| 20260504192041 | 16 | 285 | 1.6 | 6.4 | 0.00 | 0.36 | 0.25 | 96 | 1015.5 |
| 20260504191606 | 16 | 259 | 1.6 | 4.8 | 0.00 | 0.36 | 0.25 | 96 | 1015.5 |
| 20260504191040 | 16 | 258 | 0.0 | 4.8 | 0.00 | 0.36 | 0.25 | 96 | 1015.5 |
| 20260504190540 | 16 | 257 | 0.0 | 3.2 | 0.00 | 0.36 | 0.25 | 96 | 1015.4 |
| 20260504190040 | 16 | 257 | 0.0 | 3.2 | 0.00 | 0.36 | 0.25 | 96 | 1015.3 |
| 20260504185538 | 16 | 257 | 0.0 | 4.8 | 0.00 | 0.36 | 0.25 | 96 | 1015.3 |
| 20260504185038 | 16 | 257 | 0.0 | 4.8 | 0.00 | 0.36 | 0.25 | 96 | 1015.4 |
| 20260504184549 | 16 | 257 | 0.0 | 4.8 | 0.00 | 0.36 | 0.25 | 96 | 1015.3 |
| 20260504184038 | 16 | 257 | 1.6 | 6.4 | 0.00 | 0.36 | 0.25 | 96 | 1015.4 |
| 20260504183538 | 16 | 259 | 3.2 | 6.4 | 0.00 | 0.36 | 0.25 | 96 | 1015.4 |
| 20260504183038 | 16 | 282 | 3.2 | 6.4 | 0.00 | 0.36 | 0.25 | 96 | 1015.4 |
| 20260504182537 | 16 | 253 | 1.6 | 4.8 | 0.00 | 0.36 | 0.25 | 96 | 1015.4 |
| 20260504182037 | 16 | 245 | 1.6 | 4.8 | 0.00 | 0.36 | 0.25 | 96 | 1015.3 |
| 20260504181538 | 17 | 242 | 0.0 | 4.8 | 0.00 | 0.36 | 0.25 | 96 | 1015.3 |
| 20260504181037 | 17 | 259 | 1.6 | 8.0 | 0.00 | 0.36 | 0.25 | 96 | 1015.3 |
| 20260504180536 | 17 | 247 | 3.2 | 8.0 | 0.00 | 0.36 | 0.25 | 96 | 1015.2 |
| 20260504180037 | 17 | 285 | 1.6 | 4.8 | 0.00 | 0.36 | 0.25 | 96 | 1015.2 |
| 20260504175536 | 17 | 294 | 0.0 | 3.2 | 0.00 | 0.36 | 0.25 | 96 | 1015.3 |
| 20260504175035 | 17 | 291 | 1.6 | 6.4 | 0.00 | 0.36 | 0.25 | 95 | 1015.3 |
| 20260504174535 | 17 | 291 | 3.2 | 8.0 | 0.00 | 0.36 | 0.25 | 95 | 1015.2 |
| 20260504174035 | 17 | 284 | 3.2 | 8.0 | 0.00 | 0.36 | 0.25 | 95 | 1015.2 |
| 20260504173535 | 17 | 318 | 3.2 | 4.8 | 0.00 | 0.36 | 0.25 | 95 | 1014.9 |
| 20260504173034 | 17 | 298 | 1.6 | 4.8 | 0.03 | 0.36 | 0.25 | 95 | 1014.8 |
| 20260504172534 | 17 | 313 | 0.0 | 4.8 | 0.03 | 0.36 | 0.25 | 95 | 1014.8 |
| 20260504172033 | 17 | 273 | 1.6 | 4.8 | 0.03 | 0.36 | 0.25 | 95 | 1015.0 |
| 20260504171538 | 17 | 289 | 1.6 | 6.4 | 0.03 | 0.36 | 0.25 | 95 | 1015.0 |
| 20260504171033 | 17 | 303 | 1.6 | 11.3 | 0.05 | 0.36 | 0.25 | 95 | 1015.2 |
| 20260504170532 | 17 | 274 | 4.8 | 11.3 | 0.05 | 0.36 | 0.25 | 95 | 1015.3 |
| 20260504151021 | 17 | 265 | 4.8 | 16.1 | 0.05 | 0.15 | 0.05 | 93 | 1015.2 |
| 20260504150524 | 17 | 267 | 6.4 | 17.7 | 0.03 | 0.13 | 0.03 | 94 | 1015.2 |
| 20260504141017 | 17 | 311 | 0.0 | 3.2 | 0.03 | 0.10 | 0.00 | 94 | 1014.5 |
| 20260504140511 | 17 | 297 | 0.0 | 3.2 | 0.03 | 0.10 | 0.00 | 94 | 1014.5 |
| 20260504130507 | 17 | 305 | 1.6 | 4.8 | 0.00 | 0.08 | 0.08 | 94 | 1014.9 |
| 20260504110502 | 17 | 278 | 0.0 | 3.2 | 0.08 | 0.08 | 0.08 | 91 | 1015.7 |
| 20260504100602 | 19 | 287 | 3.2 | 16.1 | 0.00 | 0.00 | 0.00 | 81 | 1015.9 |
| 20260504100105 | 20 | 273 | 4.8 | 17.7 | 0.00 | 0.00 | 0.00 | 79 | 1016.0 |
| 20260504081556 | 21 | 253 | 1.6 | 11.3 | 0.00 | 0.00 | 0.00 | 72 | 1014.8 |
| 20260504081057 | 21 | 277 | 3.2 | 12.9 | 0.00 | 0.00 | 0.00 | 72 | 1014.8 |
| 20260504080557 | 21 | 281 | 4.8 | 12.9 | 0.00 | 0.00 | 0.00 | 70 | 1014.8 |
| 20260504050550 | 23 | 270 | 0.0 | 0.0 | 0.00 | 0.00 | 0.00 | 61 | 1014.1 |
| 20260504045549 | 23 | 271 | 0.0 | 0.0 | 0.00 | 0.00 | 0.00 | 63 | 1014.1 |
| 20260504045049 | 23 | 271 | 0.0 | 0.0 | 0.00 | 0.00 | 0.00 | 62 | 1013.9 |
| 20260504044549 | 23 | 271 | 0.0 | 0.0 | 0.00 | 0.00 | 0.00 | 61 | 1014.1 |
| 20260504044048 | 24 | 274 | 0.0 | 3.2 | 0.00 | 0.00 | 0.00 | 62 | 1014.0 |
| 20260504043548 | 24 | 274 | 0.0 | 4.8 | 0.00 | 0.00 | 0.00 | 61 | 1014.0 |
| 20260504043050 | 24 | 274 | 1.6 | 6.4 | 0.00 | 0.00 | 0.00 | 59 | 1014.2 |
| 20260504042548 | 24 | 235 | 1.6 | 6.4 | 0.00 | 0.00 | 0.00 | 59 | 1014.3 |
| 20260504042046 | 24 | 239 | 1.6 | 4.8 | 0.00 | 0.00 | 0.00 | 58 | 1014.3 |
| 20260504041546 | 25 | 205 | 0.0 | 1.6 | 0.00 | 0.00 | 0.00 | 58 | 1014.3 |
| 20260504041045 | 24 | 201 | 0.0 | 3.2 | 0.00 | 0.00 | 0.00 | 61 | 1014.4 |
| 20260504040547 | 24 | 285 | 0.0 | 3.2 | 0.00 | 0.00 | 0.00 | 61 | 1014.4 |
| 20260504040044 | 23 | 221 | 1.6 | 3.2 | 0.00 | 0.00 | 0.00 | 61 | 1014.5 |
| 20260504035543 | 23 | 192 | 0.0 | 3.2 | 0.00 | 0.00 | 0.00 | 62 | 1014.6 |
| 20260504035044 | 23 | 162 | 0.0 | 4.8 | 0.00 | 0.00 | 0.00 | 62 | 1014.7 |
| 20260504034554 | 23 | 160 | 0.0 | 4.8 | 0.00 | 0.00 | 0.00 | 61 | 1014.7 |
| 20260504034043 | 23 | 172 | 1.6 | 4.8 | 0.00 | 0.00 | 0.00 | 61 | 1014.6 |
| 20260504033542 | 23 | 156 | 1.6 | 6.4 | 0.00 | 0.00 | 0.00 | 60 | 1014.6 |
| 20260504033054 | 23 | 241 | 1.6 | 9.7 | 0.00 | 0.00 | 0.00 | 61 | 1014.6 |
| 20260504032544 | 23 | 223 | 3.2 | 11.3 | 0.00 | 0.00 | 0.00 | 60 | 1014.7 |
| 20260504032041 | 24 | 240 | 3.2 | 11.3 | 0.00 | 0.00 | 0.00 | 61 | 1014.8 |
| 20260504031556 | 24 | 224 | 0.0 | 12.9 | 0.00 | 0.00 | 0.00 | 61 | 1014.8 |
| 20260504031039 | 24 | 208 | 4.8 | 12.9 | 0.00 | 0.00 | 0.00 | 60 | 1014.9 |
| 20260504030538 | 24 | 215 | 3.2 | 9.7 | 0.00 | 0.00 | 0.00 | 60 | 1015.0 |
| 20260504030045 | 24 | 192 | 3.2 | 11.3 | 0.00 | 0.00 | 0.00 | 60 | 1015.1 |
| 20260504025538 | 24 | 235 | 3.2 | 9.7 | 0.00 | 0.00 | 0.00 | 59 | 1015.1 |
| 20260504025038 | 24 | 186 | 4.8 | 11.3 | 0.00 | 0.00 | 0.00 | 58 | 1015.1 |
| 20260504024543 | 24 | 277 | 1.6 | 11.3 | 0.00 | 0.00 | 0.00 | 58 | 1015.3 |
| 20260504024037 | 24 | 232 | 1.6 | 12.9 | 0.00 | 0.00 | 0.00 | 57 | 1015.3 |
| 20260504023537 | 25 | 244 | 3.2 | 12.9 | 0.00 | 0.00 | 0.00 | 57 | 1015.2 |
| 20260504023039 | 25 | 221 | 3.2 | 14.5 | 0.00 | 0.00 | 0.00 | 57 | 1015.3 |
| 20260504022537 | 25 | 245 | 6.4 | 14.5 | 0.00 | 0.00 | 0.00 | 56 | 1015.4 |
| 20260504022035 | 25 | 253 | 3.2 | 8.0 | 0.00 | 0.00 | 0.00 | 57 | 1015.5 |
| 20260504021536 | 25 | 278 | 3.2 | 11.3 | 0.00 | 0.00 | 0.00 | 56 | 1015.6 |
| 20260504021034 | 25 | 234 | 3.2 | 11.3 | 0.00 | 0.00 | 0.00 | 58 | 1015.7 |
| 20260504020532 | 25 | 288 | 4.8 | 8.0 | 0.00 | 0.00 | 0.00 | 57 | 1015.8 |
| 20260504020031 | 24 | 301 | 3.2 | 8.0 | 0.00 | 0.00 | 0.00 | 60 | 1015.9 |
| 20260504015530 | 24 | 286 | 1.6 | 8.0 | 0.00 | 0.00 | 0.00 | 59 | 1016.1 |
| 20260504015033 | 24 | 288 | 3.2 | 8.0 | 0.00 | 0.00 | 0.00 | 58 | 1016.1 |
| 20260504014528 | 24 | 330 | 1.6 | 8.0 | 0.00 | 0.00 | 0.00 | 59 | 1016.2 |
| 20260504014030 | 24 | 299 | 3.2 | 12.9 | 0.00 | 0.00 | 0.00 | 60 | 1016.3 |
| 20260504013527 | 23 | 282 | 4.8 | 12.9 | 0.00 | 0.00 | 0.00 | 59 | 1016.4 |
| 20260504013035 | 24 | 279 | 3.2 | 9.7 | 0.00 | 0.00 | 0.00 | 59 | 1016.4 |
| 20260504012526 | 24 | 291 | 0.0 | 6.4 | 0.00 | 0.00 | 0.00 | 61 | 1016.4 |
| 20260504012025 | 24 | 273 | 3.2 | 6.4 | 0.00 | 0.00 | 0.00 | 60 | 1016.5 |
| 20260504011525 | 23 | 290 | 0.0 | 6.4 | 0.00 | 0.00 | 0.00 | 61 | 1016.5 |
| 20260504011025 | 23 | 263 | 1.6 | 12.9 | 0.00 | 0.00 | 0.00 | 61 | 1016.5 |
| 20260504010522 | 23 | 271 | 4.8 | 12.9 | 0.00 | 0.00 | 0.00 | 60 | 1016.6 |
| 20260504010021 | 23 | 322 | 3.2 | 12.9 | 0.00 | 0.00 | 0.00 | 60 | 1016.5 |
| 20260504005519 | 23 | 292 | 3.2 | 14.5 | 0.00 | 0.00 | 0.00 | 61 | 1016.5 |
| 20260504005020 | 23 | 273 | 6.4 | 14.5 | 0.00 | 0.00 | 0.00 | 61 | 1016.6 |
| 20260504004519 | 23 | 256 | 3.2 | 11.3 | 0.00 | 0.00 | 0.00 | 62 | 1016.5 |
| 20260504004017 | 23 | 62 | 3.2 | 11.3 | 0.00 | 0.00 | 0.00 | 65 | 1016.6 |
| 20260504003514 | 22 | 316 | 4.8 | 12.9 | 0.00 | 0.00 | 0.00 | 66 | 1016.7 |
| 20260504003026 | 22 | 238 | 6.4 | 16.1 | 0.00 | 0.00 | 0.00 | 67 | 1016.7 |
| 20260504002512 | 22 | 302 | 4.8 | 16.1 | 0.00 | 0.00 | 0.00 | 66 | 1016.8 |
| 20260504002011 | 22 | 324 | 3.2 | 9.7 | 0.00 | 0.00 | 0.00 | 68 | 1016.8 |
| 20260504001509 | 22 | 274 | 1.6 | 12.9 | 0.00 | 0.00 | 0.00 | 69 | 1016.8 |
| 20260504001009 | 22 | 325 | 6.4 | 12.9 | 0.00 | 0.00 | 0.00 | 69 | 1016.8 |
| 20260504000507 | 22 | 290 | 1.6 | 8.0 | 0.00 | 0.00 | 0.00 | 70 | 1016.8 |
| 20260504000006 | 21 | 268 | 3.2 | 12.9 | 0.00 | 0.00 | 0.00 | 71 | 1016.8 |
| 20260503235504 | 21 | 250 | 4.8 | 12.9 | 0.00 | 0.00 | 0.00 | 71 | 1016.8 |
| 20260503235003 | 21 | 300 | 4.8 | 12.9 | 0.00 | 0.00 | 0.00 | 72 | 1016.8 |
| 20260503234502 | 21 | 284 | 3.2 | 12.9 | 0.00 | 0.00 | 0.00 | 74 | 1016.9 |
| 20260503234101 | 21 | 13 | 6.4 | 12.9 | 0.00 | 0.00 | 0.00 | 74 | 1016.9 |
| 20260503233600 | 20 | 284 | 4.8 | 12.9 | 0.00 | 0.00 | 0.00 | 75 | 1017.0 |
| 20260503233100 | 20 | 299 | 6.4 | 11.3 | 0.00 | 0.00 | 0.00 | 76 | 1017.0 |
| 20260503232558 | 20 | 266 | 4.8 | 14.5 | 0.00 | 0.00 | 0.00 | 76 | 1017.0 |
| 20260503232058 | 20 | 277 | 4.8 | 14.5 | 0.00 | 0.00 | 0.00 | 76 | 1017.0 |
| 20260503231556 | 20 | 296 | 4.8 | 9.7 | 0.00 | 0.00 | 0.00 | 78 | 1017.0 |
| 20260503231055 | 20 | 296 | 4.8 | 11.3 | 0.00 | 0.00 | 0.00 | 78 | 1017.0 |
| 20260503230553 | 20 | 268 | 4.8 | 14.5 | 0.00 | 0.00 | 0.00 | 79 | 1016.9 |
| 20260503230055 | 19 | 286 | 3.2 | 14.5 | 0.00 | 0.00 | 0.00 | 80 | 1016.9 |
| 20260503225551 | 19 | 291 | 4.8 | 14.5 | 0.00 | 0.00 | 0.00 | 81 | 1016.9 |
| 20260503225051 | 19 | 311 | 9.7 | 14.5 | 0.00 | 0.00 | 0.00 | 81 | 1016.9 |
| 20260503224552 | 19 | 278 | 6.4 | 12.9 | 0.00 | 0.00 | 0.00 | 81 | 1016.9 |
| 20260503224049 | 18 | 301 | 6.4 | 12.9 | 0.00 | 0.00 | 0.00 | 82 | 1016.9 |
| 20260503223548 | 18 | 340 | 6.4 | 14.5 | 0.00 | 0.00 | 0.00 | 83 | 1016.9 |